Terug naar catalogus

CZ-3B DEB

LostGTO
NORAD 40182·DEBRIS·🇨🇳 China

Gelanceerd Dec 19, 2011 vanaf Xichang Satellite Launch Center

Loading…

TLE

VerouderdSource: Space-Track

Epoch: Dec 26, 2025, 16:17 UTC

1 40182U 11077F   25360.67888539 -.00000026  00000-0 -32498-3 0  9990
2 40182  23.0118 312.5794 7522164 219.0719  50.5906  1.87698670 81746

Volg CZ-3B DEB in realtime met AllMySat

Download on the App Store